TimeCDT,TemperatureF,Dew PointF,Humidity,Sea Level PressureIn,VisibilityMPH,Wind Direction,Wind SpeedMPH,Gust SpeedMPH,PrecipitationIn,Events,Conditions,WindDirDegrees,DateUTC
12:15 AM,65.1,51.8,62,30.01,10.0,ENE,4.6,-,N/A,,Clear,70,2013-07-21 05:15:00
12:35 AM,64.0,51.8,64,30.01,10.0,East,5.8,-,N/A,,Clear,80,2013-07-21 05:35:00
12:55 AM,62.6,52.5,70,30.01,10.0,NE,4.6,-,N/A,,Clear,40,2013-07-21 05:55:00
1:15 AM,63.1,52.7,69,30.01,10.0,Calm,Calm,-,N/A,,Mostly Cloudy,0,2013-07-21 06:15:00
1:35 AM,63.9,53.1,68,30.01,10.0,NE,3.5,-,N/A,,Overcast,50,2013-07-21 06:35:00
1:55 AM,64.0,52.7,67,30.00,10.0,ENE,4.6,-,N/A,,Overcast,70,2013-07-21 06:55:00
2:15 AM,63.3,52.7,68,30.01,10.0,Calm,Calm,-,N/A,,Overcast,0,2013-07-21 07:15:00
2:35 AM,62.2,52.9,71,30.00,10.0,ENE,4.6,-,N/A,,Mostly Cloudy,60,2013-07-21 07:35:00
2:55 AM,61.7,52.7,72,30.01,10.0,ENE,4.6,-,N/A,,Scattered Clouds,60,2013-07-21 07:55:00
3:15 AM,61.3,52.2,72,30.00,10.0,ENE,5.8,-,N/A,,Scattered Clouds,70,2013-07-21 08:15:00
3:35 AM,61.0,51.8,72,30.00,10.0,ENE,8.1,-,N/A,,Mostly Cloudy,70,2013-07-21 08:35:00
3:55 AM,61.3,51.8,71,30.00,10.0,ENE,4.6,-,N/A,,Overcast,60,2013-07-21 08:55:00
4:15 AM,60.8,51.3,71,30.00,10.0,ENE,3.5,-,N/A,,Scattered Clouds,70,2013-07-21 09:15:00
4:35 AM,60.8,50.9,70,30.00,10.0,ENE,4.6,-,N/A,,Mostly Cloudy,60,2013-07-21 09:35:00
4:55 AM,60.4,51.1,71,30.01,10.0,East,4.6,-,N/A,Rain,Light Rain,90,2013-07-21 09:55:00
5:15 AM,59.5,51.4,75,30.01,10.0,Calm,Calm,-,N/A,,Mostly Cloudy,0,2013-07-21 10:15:00
5:35 AM,59.2,52.7,79,30.00,10.0,Calm,Calm,-,N/A,,Scattered Clouds,0,2013-07-21 10:35:00
5:55 AM,59.0,53.1,81,30.01,10.0,Calm,Calm,-,N/A,,Mostly Cloudy,0,2013-07-21 10:55:00
6:15 AM,58.1,53.1,83,30.01,10.0,Calm,Calm,-,N/A,,Scattered Clouds,0,2013-07-21 11:15:00
6:35 AM,58.1,53.6,85,30.02,10.0,Calm,Calm,-,N/A,,Scattered Clouds,0,2013-07-21 11:35:00
6:55 AM,59.2,53.6,82,30.01,10.0,Calm,Calm,-,N/A,,Scattered Clouds,0,2013-07-21 11:55:00
7:15 AM,61.2,53.2,75,30.01,10.0,East,6.9,-,N/A,,Scattered Clouds,80,2013-07-21 12:15:00
7:35 AM,62.8,52.7,70,30.02,10.0,ENE,3.5,-,N/A,,Clear,70,2013-07-21 12:35:00
7:55 AM,64.0,53.1,67,30.02,10.0,ENE,3.5,-,N/A,,Clear,60,2013-07-21 12:55:00
8:15 AM,64.4,53.6,68,30.02,10.0,NE,3.5,-,N/A,,Scattered Clouds,50,2013-07-21 13:15:00
8:35 AM,65.1,53.6,66,30.02,10.0,East,6.9,-,N/A,,Scattered Clouds,90,2013-07-21 13:35:00
8:55 AM,67.5,54.0,62,30.02,10.0,East,5.8,-,N/A,,Clear,90,2013-07-21 13:55:00
9:15 AM,68.0,54.1,61,30.02,10.0,NE,5.8,-,N/A,,Scattered Clouds,50,2013-07-21 14:15:00
9:35 AM,68.5,54.7,61,30.02,10.0,ENE,6.9,-,N/A,,Mostly Cloudy,70,2013-07-21 14:35:00
9:55 AM,69.8,54.9,59,30.02,10.0,East,5.8,-,N/A,,Scattered Clouds,80,2013-07-21 14:55:00
10:15 AM,71.1,55.0,57,30.01,10.0,East,6.9,-,N/A,,Scattered Clouds,90,2013-07-21 15:15:00
10:35 AM,71.8,54.1,54,30.02,10.0,East,9.2,-,N/A,,Scattered Clouds,80,2013-07-21 15:35:00
10:55 AM,72.9,54.3,52,30.01,10.0,ESE,8.1,-,N/A,,Mostly Cloudy,110,2013-07-21 15:55:00
11:15 AM,74.5,52.3,46,30.01,10.0,East,10.4,-,N/A,,Overcast,90,2013-07-21 16:15:00
11:35 AM,73.4,51.8,47,30.01,10.0,East,8.1,-,N/A,,Overcast,90,2013-07-21 16:35:00
11:55 AM,73.6,51.6,46,30.01,10.0,East,9.2,-,N/A,,Mostly Cloudy,90,2013-07-21 16:55:00
12:15 PM,73.4,51.3,46,30.00,10.0,SE,9.2,-,N/A,,Mostly Cloudy,130,2013-07-21 17:15:00
1:15 PM,72.5,48.0,42,29.99,10.0,ESE,6.9,-,N/A,,Mostly Cloudy,110,2013-07-21 18:15:00
1:35 PM,72.1,50.0,46,29.98,10.0,East,5.8,-,N/A,Rain,Light Rain,100,2013-07-21 18:35:00
1:55 PM,72.5,50.4,46,29.99,10.0,SSE,5.8,-,N/A,,Scattered Clouds,150,2013-07-21 18:55:00
2:15 PM,71.8,52.0,50,29.98,10.0,SE,4.6,-,N/A,,Overcast,130,2013-07-21 19:15:00
2:35 PM,71.1,52.9,53,29.99,10.0,SSE,3.5,-,N/A,,Overcast,160,2013-07-21 19:35:00
2:55 PM,70.0,55.6,60,29.96,10.0,ESE,4.6,-,N/A,Rain,Light Rain,110,2013-07-21 19:55:00
3:15 PM,67.6,59.2,74,29.94,10.0,SSE,6.9,-,N/A,Rain,Light Rain,160,2013-07-21 20:15:00
3:35 PM,67.5,60.4,78,29.95,10.0,South,5.8,-,0.01,Rain,Light Rain,190,2013-07-21 20:35:00
3:55 PM,65.7,60.3,83,29.96,10.0,NNE,4.6,-,0.02,Rain,Light Rain,20,2013-07-21 20:55:00
4:15 PM,65.7,61.7,87,29.96,10.0,North,4.6,-,N/A,,Light Drizzle,350,2013-07-21 21:15:00
4:35 PM,65.7,61.0,85,29.94,10.0,NE,3.5,-,N/A,,Overcast,40,2013-07-21 21:35:00
4:55 PM,67.1,61.3,82,29.93,10.0,Calm,Calm,-,N/A,,Mostly Cloudy,0,2013-07-21 21:55:00
5:15 PM,67.5,61.7,82,29.94,10.0,Calm,Calm,-,N/A,,Mostly Cloudy,0,2013-07-21 22:15:00
5:35 PM,68.0,61.7,80,29.94,10.0,East,8.1,-,N/A,,Mostly Cloudy,100,2013-07-21 22:35:00
5:55 PM,68.5,61.0,77,29.95,10.0,SE,6.9,-,N/A,,Mostly Cloudy,130,2013-07-21 22:55:00
6:15 PM,69.3,61.2,75,29.94,10.0,ESE,8.1,-,N/A,,Mostly Cloudy,120,2013-07-21 23:15:00
6:35 PM,70.2,61.7,74,29.94,10.0,ESE,8.1,-,N/A,,Mostly Cloudy,120,2013-07-21 23:35:00
6:55 PM,69.8,62.1,76,29.94,10.0,ESE,8.1,-,N/A,,Mostly Cloudy,120,2013-07-21 23:55:00
7:15 PM,69.3,62.6,79,29.94,10.0,ESE,6.9,-,N/A,,Mostly Cloudy,120,2013-07-22 00:15:00
7:35 PM,69.3,63.0,80,29.94,10.0,ESE,6.9,-,N/A,,Overcast,110,2013-07-22 00:35:00
7:55 PM,69.3,63.3,81,29.94,10.0,East,5.8,-,N/A,,Mostly Cloudy,90,2013-07-22 00:55:00
8:15 PM,68.7,63.5,83,29.94,10.0,East,3.5,-,N/A,,Overcast,100,2013-07-22 01:15:00
8:35 PM,68.4,63.5,84,29.93,10.0,SE,3.5,-,N/A,,Overcast,130,2013-07-22 01:35:00
8:55 PM,68.0,63.5,85,29.93,10.0,ESE,3.5,-,N/A,,Overcast,120,2013-07-22 01:55:00
9:15 PM,67.3,63.5,88,29.94,10.0,ESE,4.6,-,N/A,,Mostly Cloudy,120,2013-07-22 02:15:00
9:35 PM,66.0,62.8,89,29.93,10.0,Calm,Calm,-,N/A,,Scattered Clouds,0,2013-07-22 02:35:00
9:55 PM,65.1,62.2,90,29.93,10.0,ESE,3.5,-,N/A,,Clear,110,2013-07-22 02:55:00
10:15 PM,64.4,61.7,91,29.93,5.0,Calm,Calm,-,N/A,,Clear,0,2013-07-22 03:15:00
10:35 PM,64.0,61.7,92,29.93,7.0,Calm,Calm,-,N/A,,Clear,0,2013-07-22 03:35:00
10:55 PM,64.0,61.7,92,29.93,7.0,Calm,Calm,-,N/A,,Clear,0,2013-07-22 03:55:00
11:15 PM,62.8,60.6,93,29.93,7.0,Calm,Calm,-,N/A,,Clear,0,2013-07-22 04:15:00
11:35 PM,62.2,60.1,93,29.92,4.0,Calm,Calm,-,N/A,,Clear,0,2013-07-22 04:35:00
11:55 PM,62.2,60.3,93,29.92,5.0,Calm,Calm,-,N/A,,Clear,0,2013-07-22 04:55:00